Retour au catalogue

OPS 4682 DEB

ActifPO
NORAD 1389·DEBRIS·🇺🇸 United States

Lancé Apr 3, 1965 depuis Vandenberg Space Force Base

Loading…

Prochains Passages (prochaines 24 heures)

TLE

FraisSource: Space-Track

Époque: Sep 14, 2026, 09:24 UTC

1 01389U 65027D   26257.39193109  .00000629  00000-0  16621-2 0  9993
2 01389  89.8744 218.6211 0017892 270.2602 256.5699 13.14873633922408

Suivez OPS 4682 DEB en temps réel avec AllMySat

Download on the App Store